{"data":{"norad_id":65793,"epoch":"2026-09-20T11:52:21.532224Z","epoch_age_seconds":109220,"freshness":"FRESH","line1":"1 65793U 25218C   26263.49469366  .00011832  00000+0  36819-3 0  9998","line2":"2 65793  97.2848 120.8845 0001713  93.9523 266.1916 15.33448100 54336","mean_motion":15.334481,"eccentricity":0.0001713,"inclination_deg":97.2848,"raan_deg":120.8845,"arg_perigee_deg":93.9523,"mean_anomaly_deg":266.1916,"bstar":0.00036819,"rev_number":5433,"period_min":93.906014817195,"perigee_km":464.36163024079,"apogee_km":466.70627190862,"semimajor_km":6843.6709510747,"source":"CELESTRAK","updated_at":"2026-09-21T09:00:35.713642Z"}}